Regional Weather Roundup
Issued by NWS Goodland, KS

Home | Current Version | Previous Version | Text Only | Print | Product List | Glossary Off
Versions: 1 2 3 4 5 6 7 8 9 10 11 12 13 14 15 16 17 18 19 20 21 22 23 24 25 26 27 28 29 30 31 32 33 34 35 36 37 38 39 40 41 42 43 44 45 46 47 48 49 50

000
ASUS43 KGLD 030659
RWRGLD

GOODLAND FORECAST AREA HOURLY WEATHER ROUNDUP
NATIONAL WEATHER SERVICE GOODLAND KS
100 AM MDT FRI JUL 03 2015

...OFFICIAL OBSERVATIONS...

CITY           SKY/WX    TMP DP  RH WIND       PRES   REMARKS
GOODLAND KS    CLEAR     63  56  78 S5        30.09F
HILL CITY KS   CLEAR     66  60  81 N3        30.02S
IMPERIAL NEB   CLEAR     62  58  86 NE6       30.08F
MCCOOK NEB     CLEAR     64  59  83 CALM      30.04S
AKRON CO       MOCLDY    65  57  75 S7        30.15F
BURLINGTON CO  CLOUDY    66  59  78 SE8       30.13F
LIMON CO       MOCLDY    58  56  93 N3        30.22F
$$

...UNOFFICIAL OBSERVATIONS...

CITY           SKY/WX    TMP DP  RH WIND       PRES   REMARKS
COLBY KS       CLEAR     66  61  82 CALM      30.08S
GOVE KS          N/A     65  32  29 MISG        N/A
NORTON KS      CLEAR     61  54  77 CALM      30.02S
SHARON SPRINGS   N/A     67  58  72 CALM        N/A
KIT CARSON CO    N/A     66  56  71 MISG        N/A
YUMA CO          N/A     65  59  81 CALM        N/A
$$



USA.gov is the U.S. government's official web portal to all federal, state and local government web resources and services.